Location: Berduj
(43.0019°N, 22.3781°E)
Time: 13:54:43
(UTC+00:00)

YAOGAN 6 - Pass Details

Date: 19 October 2019
Orbit: 465 x 506 km, 97.0° (Epoch: 20 November)

Event Time Altitude Azimuth Distance (km) Brightness Sun altitude
Rises 16:38:14 0° 162° (SSE) 2,584 6.1 -11.0°
Reaches altitude 10° 16:40:19 10° 160° (SSE) 1,700 5.2 -11.4°
Maximum altitude 16:43:58 71° 77° (ENE) 528 2.5 -12.0°
Drops below altitude 10° 16:47:36 10° 353° (N) 1,695 5.4 -12.7°
Sets 16:49:41 0° 351° (N) 2,574 6.3 -13.1°
